Location: Maccacari
(45.1333°N, 11.1333°E)
Time: 08:39:47
(UTC+00:00)

Resurs 01 Rocket - Pass Details

Date: 18 September 2020
Orbit: 633 x 645 km, 98.0° (Epoch: 29 October)

Event Time Altitude Azimuth Distance (km) Brightness Sun altitude
Exits shadow 20:56:49 19° 286° (WNW) 1,553 4.1 -35.0°
Drops below altitude 10° 20:59:07 10° 315° (NW) 2,051 5.0 -35.2°
Sets 21:01:52 0° 333° (NNW) 2,965 6.0 -35.5°
